Regional Weather Roundup
Issued by NWS New Orleans/Baton Rouge, LA

Home | Current Version | Previous Version | Graphics & Text | Print | Product List | Glossary On
Versions: 1 2 3 4 5 6 7 8 9 10 11 12 13 14 15 16 17 18 19 20 21 22 23 24 25 26 27 28 29 30 31 32 33 34 35 36 37 38 39 40 41 42 43 44 45 46 47 48 49 50
681
ASUS44 KLIX 032005
RWRLIX
NEW ORLEANS REGIONAL WEATHER ROUNDUP
NATIONAL WEATHER SERVICE NEW ORLEANS LA
200 PM CST TUE MAR 03 2015

NOTE: "FAIR" INDICATES FEW OR NO CLOUDS BELOW 12,000 FEET WITH NO
      SIGNIFICANT WEATHER AND/OR OBSTRUCTIONS TO VISIBILITY.
      SKY/WX - SKY CONDITION AND SIGNIFICANT WEATHER.
      TMP - AIR TEMPERATURE.     DP    - DEWPOINT TEMPERATURE.
      RH  - RELATIVE HUMIDITY.   PRES  - PRESSURE.
      HI  - HEAT INDEX.          WCI   - WIND CHILL INDEX.

*  THESE STATIONS ARE NOT NWS OR FAA STATIONS AND ARE NOT UNDER
   NWS QUALITY CONTROL.

LAZ038-040-048-061>063-065>067-069-032100-
SOUTHEAST LOUISIANA

CITY           SKY/WX    TMP DP  RH WIND       PRES   REMARKS
N.O. AUDUBON     N/A     78  70  74 MISG        N/A
N.O. INTL ARPT PTSUNNY   79  66  64 S20       30.04F
N.O. LAKEFRONT CLOUDY    82  67  60 S15       30.05F
SLIDELL        CLOUDY    75  68  78 SE10      30.05F
BATON ROUGE    CLOUDY    76  69  79 S18       30.01F
BOOTHVILLE       N/A     77  68  73 SE13      30.07F
BELLE CHASSE   PTSUNNY   77  65  66 S17       30.05F
BOGALUSA*        N/A     78  66  66 S12G17    30.05F
GALLIANO*      CLOUDY    79  67  67 MISG      30.06F
NEW ROADS*     MOCLDY    78  68  70 S13G18    30.00F
GONZALES*      CLOUDY    73  73 100 S7        30.01F
HAMMOND*       NOT AVBL
HOUMA*         PTSUNNY   79  70  73 SE18      30.04F
PORT FOURCHON* PTCLDY    75  68  78 SE13      30.09F

$$

MSZ070-080>082-032100-
SOUTHERN MISSISSIPPI

CITY           SKY/WX    TMP DP  RH WIND       PRES   REMARKS
MCCOMB         CLOUDY    73  66  78 S9        30.02F
GULFPORT       CLOUDY    68  64  87 SE16      30.08F
BILOXI         PTSUNNY   72  66  83 SE15      30.09F
PASCAGOULA     CLOUDY    70  64  81 SE15      30.10F
STENNIS ARPT*  CLOUDY    72  63  73 SE12G21   30.08F

$$

COASTAL OBSERVATIONS
LAKE AND NEARSHORE STATIONS

STATION/POSITION TIME  TEMP    WIND        PRES    WAVE
                       AIR SEA DIR/SP/G            HT/PER
                 (UTC) (F)     (DEG/KT/KT) (MB)    (FT/S)
PASCAGOULA       2000   71     120/  5/ 10 1019.0
WAVELAND YACHT   2000   65 57  140/ 13/ 14 1018.5
GRAND ISLE       2000   71 64  140/  7/ 12 1018.5
SOUTHWEST PASS   2000   75 47  150/  8/  9 1018.5
NEW CANAL        2000   78     200/ 12/ 17 1017.7
SHELL BEACH      2000   73 61  140/ 16/ 20 1018.0

OFFSHORE STATIONS

STATION/POSITION TIME  TEMP    WIND        PRES    WAVE
                       AIR SEA DIR/SP/G            HT/PER
                 (UTC) (F)     (DEG/KT/KT) (MB)    (FT/S)

$$




USA.gov is the U.S. government's official web portal to all federal, state and local government web resources and services.